Stations météo

réclame
Mon MeteoGroup
Gunnarn A, Suède (2126): Température de l'air & dewpoint: 18.01.2018 10:00:00 - 24.01.2018 10:00:00 (CET)Gunnarn A, Suède (2126): Vitesse du vent & gusts: 18.01.2018 10:00:00 - 24.01.2018 10:00:00 (CET)Gunnarn A, Suède (2126): Direction du vent: 18.01.2018 10:00:00 - 24.01.2018 10:00:00 (CET)Gunnarn A, Suède (2126): reduced air pressure: 18.01.2018 10:00:00 - 24.01.2018 10:00:00 (CET)Gunnarn A, Suède (2126): visibility: 18.01.2018 10:00:00 - 24.01.2018 10:00:00 (CET)Gunnarn A, Suède (2126): Quantités de précipitations: 18.01.2018 10:00:00 - 24.01.2018 10:00:00 (CET)
Date & Time tt [°C] td [°C] ff [km/h] ff [knt] fx [km/h] fx [knt] dd ppp [hPa] vv [km] rr [mm]
24.01.2018 10:00:00 - - - - - - - - - -
24.01.2018 09:00:00 -11,0 -12,3 7 4 13 7 NW 992,7 3,1 0,4
24.01.2018 08:00:00 -11,4 -12,7 7 4 10 6 NW 993,2 3,0 0,6
24.01.2018 07:00:00 -11,8 -13,2 5 3 8 5 NW 993,8 6 0,4
24.01.2018 06:00:00 -12,3 -13,7 3 2 8 4 NW 994,8 2,0 1,2
24.01.2018 05:00:00 -13,0 -14,4 5 3 8 4 NW 996,1 2,0 0,7
24.01.2018 04:00:00 -14,0 -15,6 3 1 11 6 NW 997,6 1,0 0,7
24.01.2018 03:00:00 -14,2 -15,7 5 3 11 6 N 999,4 1,9 0,1
24.01.2018 02:00:00 -14,9 -16,6 4 2 11 6 NNE 1000,9 1,8 0,1
24.01.2018 01:00:00 -15,5 -17,0 5 3 11 6 NNE 1002,5 2,3 0,1
24.01.2018 00:00:00 -16,0 -17,9 4 2 12 7 NNE 1004,4 10 0,0
23.01.2018 23:00:00 -16,2 -18,1 5 3 12 7 NE 1005,9 6 0,0
23.01.2018 22:00:00 -16,3 -18,4 6 3 11 6 NE 1006,8 3,3 0,0
23.01.2018 21:00:00 -16,7 -18,8 5 3 9 5 NNE 1007,9 4,2 0,0
23.01.2018 20:00:00 -16,7 -18,9 4 2 10 6 NNE 1009,1 2,7 0,0
23.01.2018 19:00:00 -16,6 -18,7 5 3 10 6 NNE 1009,8 8 0,0
23.01.2018 18:00:00 -16,8 -19,0 4 2 10 5 NE 1010,9 7 0,0
23.01.2018 17:00:00 -17,0 -19,1 5 3 9 5 NE 1011,4 15 0,0
23.01.2018 16:00:00 -16,9 -19,0 3 2 8 4 NE 1012,2 4,5 0,0
23.01.2018 15:00:00 -16,8 -18,9 0 0 8 4 N 1012,6 2,4 0,0
23.01.2018 14:00:00 -16,9 -19,1 4 2 8 4 NNE 1012,8 7 0,0
23.01.2018 13:00:00 -16,9 -19,2 4 2 8 4 ENE 1013,3 3,0 0,0
23.01.2018 12:00:00 -17,1 -19,4 3 1 8 4 ENE 1014,2 2,1 0,0
23.01.2018 11:00:00 -17,7 -20,0 0 0 5 3 N 1014,7 1,8 0,0
23.01.2018 10:00:00 -16,9 -19,1 2 1 5 3 NNE 1014,8 2,1 0,0
23.01.2018 09:00:00 -17,1 -19,3 2 1 5 3 N 1014,8 3,3 0,0
23.01.2018 08:00:00 -17,2 -19,3 2 1 5 3 ENE 1015,0 3,6 0,0
23.01.2018 07:00:00 -17,7 -19,7 0 0 3 2 N 1015,3 3,6 0,0
23.01.2018 06:00:00 -17,1 -19,2 0 0 2 1 N 1015,8 1,9 0,0
23.01.2018 05:00:00 -17,3 -19,4 0 0 3 2 N 1016,2 3,7 0,0
23.01.2018 04:00:00 -17,6 -19,8 0 0 3 2 N 1016,2 7 0,0
23.01.2018 03:00:00 -16,7 -19,0 0 0 5 3 N 1016,3 11 0,0
23.01.2018 02:00:00 -16,6 -18,8 0 0 5 3 N 1016,6 5 0,0
23.01.2018 01:00:00 -16,7 -18,8 3 1 4 2 NNE 1016,8 4,5 0,0
23.01.2018 00:00:00 -16,6 -18,8 2 1 4 2 NE 1016,8 4,7 0,0
22.01.2018 23:00:00 -16,5 -18,6 3 1 5 3 N 1017,1 4,1 0,0
22.01.2018 22:00:00 -17,1 -19,6 0 0 6 4 N 1017,1 4,4 0,0
22.01.2018 21:00:00 -16,6 -18,8 2 1 6 4 NE 1016,7 5 0,0
22.01.2018 20:00:00 -16,5 -18,7 3 1 5 3 NNE 1016,8 3,3 0,0
22.01.2018 19:00:00 -16,4 -18,5 3 1 5 3 NE 1016,7 2,8 0,0
22.01.2018 18:00:00 -16,4 -18,5 3 1 5 3 NNE 1016,5 3,5 0,0
22.01.2018 17:00:00 -16,7 -18,8 2 1 5 3 N 1016,1 3,5 0,0
22.01.2018 16:00:00 -16,6 -18,8 0 0 5 3 N 1016,1 5 0,0
22.01.2018 15:00:00 -16,5 -18,7 2 1 5 3 NE 1016,1 4,2 0,0
22.01.2018 14:00:00 -16,7 -18,9 3 1 5 3 NE 1015,9 5 0,0
22.01.2018 13:00:00 -16,8 -19,3 0 0 6 3 N 1015,7 2,9 0,0
22.01.2018 12:00:00 -17,5 -20,0 4 2 6 4 N 1015,8 4,2 0,1
22.01.2018 11:00:00 -17,9 -20,4 4 2 8 4 N 1015,7 3,3 0,0
22.01.2018 10:00:00 -18,4 -20,7 3 2 10 6 NNE 1015,7 6 0,0
22.01.2018 09:00:00 -18,6 -20,9 5 3 10 6 NNW 1015,6 9 0,0
22.01.2018 08:00:00 -18,8 -21,1 3 2 9 5 NNE 1015,2 3,5 0,0
22.01.2018 07:00:00 -19,2 -21,5 3 2 9 5 NW 1015,2 2,1 0,0
22.01.2018 06:00:00 -19,2 -21,6 4 2 10 6 NNW 1015,4 6 0,0
22.01.2018 05:00:00 -18,6 -20,9 3 2 14 8 N 1015,4 8 0,0
22.01.2018 04:00:00 -17,9 -20,1 8 4 14 8 NNW 1015,3 16 0,0
22.01.2018 03:00:00 -17,4 -19,4 6 3 11 6 NW 1015,5 7 0,0
22.01.2018 02:00:00 -17,0 -19,1 4 2 11 6 NW 1015,5 3,3 0,0
22.01.2018 01:00:00 -16,7 -18,6 4 2 12 7 NNW 1015,6 9 0,0
22.01.2018 00:00:00 -16,1 -18,2 5 3 12 7 NNE 1015,3 11 0,0
21.01.2018 23:00:00 -15,5 -17,4 7 4 10 6 NW 1015,3 10 0,0
21.01.2018 22:00:00 -14,7 -16,5 4 2 11 6 NNW 1015,1 6 0,0
21.01.2018 21:00:00 -14,4 -16,2 5 3 11 6 NNW 1014,9 11 0,0
21.01.2018 20:00:00 -14,3 -16,0 7 4 10 5 NW 1014,9 9 0,0
21.01.2018 19:00:00 -13,9 -15,7 4 2 8 4 NW 1014,8 6 0,0
21.01.2018 18:00:00 -13,6 -15,2 5 3 8 4 NW 1014,7 5 0,0
21.01.2018 17:00:00 -13,3 -14,8 4 2 7 4 NNW 1014,7 4,5 0,0
21.01.2018 16:00:00 -12,8 -14,4 0 0 8 5 N 1014,3 5 0,0
21.01.2018 15:00:00 -12,1 -14,0 4 2 8 5 NW 1014,1 3,6 0,0
21.01.2018 14:00:00 -11,7 -13,4 4 2 9 5 NNW 1013,9 3,5 0,0
21.01.2018 13:00:00 -11,4 -13,1 5 3 9 5 NNE 1013,5 4,2 0,1
21.01.2018 12:00:00 -11,2 -12,8 4 2 8 4 NNW 1013,5 3,1 0,1
21.01.2018 11:00:00 -11,2 -12,8 3 1 6 4 NNW 1013,4 2,9 0,1
21.01.2018 10:00:00 -11,4 -13,0 3 2 7 4 N 1013,3 3,2 0,1
21.01.2018 09:00:00 -11,4 -12,8 3 2 7 4 N 1013,1 7 0,0
21.01.2018 08:00:00 -11,4 -12,8 2 1 7 4 NNE 1012,7 11 0,0
21.01.2018 07:00:00 -11,3 -12,9 3 2 8 4 N 1012,6 7 0,0
21.01.2018 06:00:00 -11,2 -12,5 3 1 8 4 NNW 1012,4 6 0,0
21.01.2018 05:00:00 -11,1 -12,6 3 2 8 4 N 1012,2 9 0,0
21.01.2018 04:00:00 -11,0 -12,5 3 2 8 4 NNW 1012,0 8 0,0
21.01.2018 03:00:00 -11,0 -12,5 3 2 8 5 N 1011,9 16 0,0
21.01.2018 02:00:00 -10,9 -12,4 6 3 8 5 NW 1011,8 27 0,0
21.01.2018 01:00:00 -11,2 -12,7 2 1 7 4 N 1011,8 41 0,0
21.01.2018 00:00:00 -11,6 -12,9 3 2 7 4 NNW 1011,5 4,8 0,1
20.01.2018 23:00:00 -12,2 -13,6 2 1 6 4 N 1011,5 1,7 0,3
20.01.2018 22:00:00 -12,7 -14,3 2 1 6 4 NNW 1011,4 4,2 0,1
20.01.2018 21:00:00 -12,4 -14,1 0 0 5 3 N 1011,1 3,3 0,1
20.01.2018 20:00:00 -11,7 -13,1 2 1 5 3 NW 1011,0 2,7 0,1
20.01.2018 19:00:00 -12,2 -13,5 2 1 5 3 NW 1010,6 3,2 0,0
20.01.2018 18:00:00 -12,4 -14,1 0 0 5 3 N 1010,4 6 0,0
20.01.2018 17:00:00 -11,6 -13,0 3 2 8 5 N 1010,2 6 0,0
20.01.2018 16:00:00 -10,6 -12,1 3 2 10 6 N 1009,9 5 0,0
20.01.2018 15:00:00 -10,1 -11,6 5 3 10 6 N 1009,7 7 0,1
20.01.2018 14:00:00 -9,6 -10,9 3 1 5 3 NNW 1009,4 4,0 0,1
20.01.2018 13:00:00 -9,8 -11,3 2 1 4 2 N 1009,2 5 0,0
20.01.2018 12:00:00 -10,1 -11,7 0 0 4 2 N 1009,3 2,5 0,1
20.01.2018 11:00:00 -10,5 -12,0 0 0 4 2 N 1009,8 3,7 0,2
20.01.2018 10:00:00 -10,8 -12,3 0 0 4 2 N 1009,6 2,6 0,2
20.01.2018 09:00:00 -11,1 -12,4 3 1 4 2 E 1009,2 4,9 0,1
20.01.2018 08:00:00 -11,3 -12,7 0 0 4 2 N 1008,8 4,2 0,1
20.01.2018 07:00:00 -11,4 -12,8 0 0 4 2 N 1008,6 3,2 0,1
20.01.2018 06:00:00 -11,6 -13,0 2 1 5 3 SSE 1008,8 4,2 0,1
20.01.2018 05:00:00 -11,8 -13,4 0 0 5 3 N 1008,6 3,7 0,0
20.01.2018 04:00:00 -11,9 -13,3 3 2 7 4 E 1008,5 8 0,0
20.01.2018 03:00:00 -12,2 -13,8 3 1 7 4 ESE 1008,4 3,5 0,1
20.01.2018 02:00:00 -12,8 -14,4 0 0 4 2 N 1008,5 1,3 0,3
20.01.2018 01:00:00 -13,3 -15,0 0 0 4 2 N 1008,6 1,7 0,3
20.01.2018 00:00:00 -13,8 -15,5 0 0 4 2 N 1008,5 2,5 0,1
19.01.2018 23:00:00 -14,2 -16,0 0 0 4 2 N 1008,3 1,4 0,2
19.01.2018 22:00:00 -14,6 -16,3 0 0 4 2 N 1008,2 1,5 0,1
19.01.2018 21:00:00 -15,2 -17,0 2 1 4 2 ENE 1008,1 1,1 0,0
19.01.2018 20:00:00 -15,6 -17,5 0 0 4 2 N 1007,8 0,8 0,0
19.01.2018 19:00:00 -15,9 -17,8 0 0 4 2 N 1007,7 1,1 0,1
19.01.2018 18:00:00 -16,0 -17,9 2 1 5 3 S 1007,5 1,3 0,1
19.01.2018 17:00:00 -16,1 -18,0 2 1 6 3 ESE 1007,3 2,9 0,0
19.01.2018 16:00:00 -16,5 -18,4 0 0 6 3 N 1007,2 1,2 0,0
19.01.2018 15:00:00 -17,3 -19,1 0 0 3 2 N 1006,7 3,3 0,0
19.01.2018 14:00:00 -18,6 -20,4 0 0 4 2 N 1006,4 12 0,0
19.01.2018 13:00:00 -18,8 -21,1 2 1 5 3 NNW 1006,0 1,3 0,0
19.01.2018 12:00:00 -17,8 -20,6 2 1 5 3 WNW 1005,9 2,8 0,1
19.01.2018 11:00:00 -16,3 -18,4 3 1 4 2 WNW 1005,4 3,0 0,1
19.01.2018 10:00:00 -15,2 -17,1 0 0 6 3 N 1005,0 1,0 0,1
19.01.2018 09:00:00 -15,3 -17,4 3 2 6 3 N 1004,7 1,6 0,0
19.01.2018 08:00:00 -17,0 -18,8 2 1 8 4 W 1004,3 1,1 0,1
19.01.2018 07:00:00 -15,8 -17,5 4 2 8 4 N 1003,7 5 0,1
19.01.2018 06:00:00 -14,5 -16,5 3 1 9 5 NW 1003,2 3,3 0,2
19.01.2018 05:00:00 -13,8 -15,6 4 2 9 5 NNW 1003,0 3,6 0,1
19.01.2018 04:00:00 -13,4 -15,0 6 3 12 6 NW 1002,8 2,5 0,2
19.01.2018 03:00:00 -13,9 -15,7 5 3 12 6 NW 1002,8 9 0,1
19.01.2018 02:00:00 -13,1 -14,8 5 3 9 5 NW 1002,6 3,2 0,1
19.01.2018 01:00:00 -13,0 -14,6 4 2 9 5 N 1002,4 5 0,1
19.01.2018 00:00:00 -12,5 -14,1 4 2 8 4 N 1002,3 36 0,0
18.01.2018 23:00:00 -12,4 -14,0 5 3 8 5 NNW 1002,3 4,1 0,1
18.01.2018 22:00:00 -12,2 -13,8 5 3 8 5 NNW 1002,3 3,1 0,1
18.01.2018 21:00:00 -11,9 -13,5 4 2 8 4 NNW 1002,1 2,5 0,1
18.01.2018 20:00:00 -12,0 -13,6 3 2 6 3 NNW 1001,9 3,2 0,1
18.01.2018 19:00:00 -11,8 -13,2 3 2 8 5 NNW 1001,7 3,0 0,0
18.01.2018 18:00:00 -12,4 -14,0 4 2 9 5 NNW 1001,6 6 0,1
18.01.2018 17:00:00 -11,8 -13,2 5 3 9 5 NW 1001,6 3,0 0,1
18.01.2018 16:00:00 -11,8 -13,2 4 2 7 4 NW 1001,4 2,8 0,1
18.01.2018 15:00:00 -13,4 -15,1 2 1 7 4 NW 1001,5 1,2 0,1
18.01.2018 14:00:00 -11,8 -13,2 3 2 6 4 NNW 1001,3 1,6 0,1
18.01.2018 13:00:00 -12,8 -14,6 3 1 6 3 NW 1001,4 1,7 0,1
18.01.2018 12:00:00 -11,9 -13,8 3 2 6 3 NW 1001,4 1,4 0,1
18.01.2018 11:00:00 -12,5 -14,4 3 2 6 4 WNW 1001,5 2,7 0,1
18.01.2018 10:00:00 -12,6 -14,3 4 2 6 4 NNW 1001,6 2,7 0,1

tt = Température de l'air
td = dewpoint
ff = Vitesse du vent
fx = gusts
dd = Direction du vent
ppp = reduced air pressure
vv = visibility
rr = Quantités de précipitations

stations d'obs. à proximité